STARLINK-1779 (47123 NORAD) Tracking and Keplerian Element Data

This shows tracking and keplerian element data for the satellite.

Feedback or suggestion? Click here.




ElementValue
Catalog47123
NameSTARLINK-1779
Epoch Orbit1569
Epoch Day60.91667824
Epoch Year2021
RAAN258.0201
Inclination53.0526
Eccentricity0.0003432
Argument of Perigee45.044
Mean Anonmoly210.2442
Mean Motion15.04742913
Decay Rate0.00024094
L11 47123U 20088B 21060.91667824 .00024094 00000-0 17048-2 0 9998
L22 47123 53.0526 258.0201 0003432 45.0440 210.2442 15.04742913 15699

Live tracking and technical data element details for STARLINK-1779 (NORAD 47123). STARLINK-1779 can be tracked NOW for your location showing map with azimuth and elevation plus other details from your city location.

Track the satellite on the map from your city or location and see movement details for azimuth, elevation, latitude, longitude, range, height, and movement on the map or in text.







IsCatalogInMostPopularTable: catalog: 47123, numindb: 26
Update: records affected: 1



GetName: 47123 STARLINK-1779

Hit Count: updated at: Tue, 02 Mar 2021 13:41:39 GMT